Regional Weather Roundup
Issued by NWS Wakefield, VA

Home | Current Version | Previous Version | Graphics & Text | Print | Product List | Glossary On
Versions: 1 2 3 4 5 6 7 8 9 10 11 12 13 14 15 16 17 18 19 20 21 22 23 24 25 26 27 28 29 30 31 32 33 34 35 36 37 38 39 40 41 42 43 44 45 46 47 48 49 50
000
ASUS41 KAKQ 270514
RWRAKQ

REGIONAL WEATHER ROUNDUP
NATIONAL WEATHER SERVICE WAKEFIELD VA
100 AM EDT FRI MAR 27 2015

Note: "fair" indicates few or no clouds below 12,000 feet with no
significant weather and/or obstructions to visibility. * = Denotes
station may not report precipitation (e.g., rain,snow,etc.),
thunder or fog.

VAZ042-051-052>054-056-270600-
NORTHERN VIRGINIA

CITY           SKY/WX    TMP DP  RH WIND       PRES   REMARKS
WASH NATIONAL  LGT RAIN  52  44  74 N12       29.77R
DULLES         RAIN      48  42  80 NW12      29.77R
FORT BELVOIR   LGT RAIN  49  44  85 VRB2      29.78R
QUANTICO       HVY RAIN  49  44  83 N9        29.79R
FREDERICKSBRG* RAIN      50  49  97 N6        29.78R
STAFFORD*      RAIN      47  32  55 N8        29.81R
WARRENTON      RAIN      49  48  97 N8        29.77R
CULPEPER*      RAIN      48  46  93 NE7       29.77R
MANASSAS*      CLOUDY    46  45  93 N8        29.79R
LEESBURG*      LGT RAIN  48  45  87 NW8       29.79R
WINCHESTER     DRIZZLE   46  34  61 NW16      29.79R
FRONT ROYAL*   CLOUDY    46  37  71 CALM      29.78S
LURAY*         RAIN      50  41  71 N10       29.78R
$$

VAZ048-049-060>072-079>083-270600-
CENTRAL AND SOUTH CENTRAL VIRGINIA

CITY           SKY/WX    TMP DP  RH WIND       PRES   REMARKS
RICHMOND       CLOUDY    65  55  70 S6        29.68R
CHESTERFIELD*  CLOUDY    64  48  55 S7        29.69S
PETERSBURG*    CLOUDY    64  56  73 S3        29.69S
HANOVER        CLOUDY    59  54  83 N8G18     29.73R
TAPPAHANNOCK*  CLOUDY    57  48  72 NW9       29.74R
QUINTON*       CLOUDY    64  57  77 S5        29.69R
CHARLOTTSVILLE LGT RAIN  51  49  92 N5        29.72R
GORDONSVILLE*  CLOUDY    48  46  93 NE10G16   29.74R
ORANGE*        RAIN      48  45  87 N12G20    29.76S
LOUISA*        LGT RAIN  50  46  87 NE16G23   29.73R
BUMPASS*       CLOUDY    51  45  79 N9G23     29.74R
FARMVILLE*     CLOUDY    65  55  69 N6        29.68R
CREWE*         FAIR      65  55  69 MISG      29.67S
FORT PICKETT*  FAIR      63  55  76 S8        29.68S
CHASE CITY*    FAIR      66  59  79 S5        29.68S
CLARKSVILLE*   FAIR      64  55  72 S8        29.68S
SOUTH HILL*    CLOUDY    62  56  81 S6        29.75S
LAWRENCEVILLE* FAIR      63  58  81 S5        29.69S
EMPORIA*       CLOUDY    63  57  82 SE6       29.72S
$$

VAZ088>098-270600-
SOUTHEAST VIRGINIA

CITY           SKY/WX    TMP DP  RH WIND       PRES   REMARKS
NORFOLK        CLOUDY    64  57  78 S15       29.70F
VIRGINIA BEACH CLOUDY    68  57  68 S13       29.71F
NORFOLK NAVAL  CLOUDY    69  57  65 S13G21    29.72S
WEST POINT*    CLOUDY    67  56  68 S6        29.70S
SALUDA*        MOCLDY    64  57  77 SW8G16    29.68S
NEWPORT NEWS   NOT AVBL
LANGLEY AFB    CLOUDY    65  57  76 SW12G20   29.69S
FORT EUSTIS    CLOUDY    64  56  78 VRB7      29.68S
WILLIAMSBURG*  CLOUDY    66  61  82 SW6       29.70S
HR EXEC AP*    FAIR      64  57  77 S10G16    29.72F
FRANKLIN*      CLOUDY    65  57  77 S9        29.72R
WAKEFIELD      CLOUDY    65  57  75 S5        29.70S
$$

VAZ020-022-025-037-045-270600-
WEST CENTRAL AND SOUTHWEST VIRGINIA

CITY           SKY/WX    TMP DP  RH WIND       PRES   REMARKS
STAUNTON*      RAIN      48  43  83 N10       29.79R
WAYNESBORO*    CLOUDY    47  43  88 N9G18     29.76R
HOT SPRINGS VA LGT RAIN  38  38 100 W18G25    29.73F VSB 1/4
LYNCHBURG      CLOUDY    57  53  86 VRB3      29.73R
DANVILLE       CLOUDY    59  55  87 SW5       29.69R
SOUTH BOSTON*  FAIR      63  54  71 MISG      29.68S
MARTINSVILLE   CLOUDY    60  49  68 NW7       29.74R
ROANOKE        RAIN      50  46  86 NW7       29.78R FOG
BLACKSBURG     RAIN      45  41  85 W7        29.81R
DUBLIN*        RAIN      47  42  84 NW12G18   29.81S
MARION*        DRIZZLE   44  39  82 W7G16     29.85R
HILLSVILLE*    LGT RAIN  46  43  90 NW16      29.78R
RICHLANDS*     RAIN      37  35  92 NW10      29.87R
WISE*          LGT RAIN  37  37 100 N6        29.89S
ABINGDON*      LGT RAIN  44  41  89 N5        29.85S
$$

MDZ021>025-VAZ099-100-270600-
SOUTHERN MARYLAND AND THE DELMARVA PENINSULA

CITY           SKY/WX    TMP DP  RH WIND       PRES   REMARKS
PATUXENT RIVER CLOUDY    53  49  86 NW12      29.72R
BAY BRIDGE APT LGT RAIN  45  45 100 NW10      29.76R
LEONARDTOWN    CLOUDY    52  50  93 NW8       29.75R
DOVER          LGT RAIN  52  52 100 W13       29.66R
GEORGETOWN     CLOUDY    58  52  80 VRB7G18   29.70R
EASTON         RAIN      52  52 100 N9        29.77R
CAMBRIDGE      CLOUDY    54  50  87 NW13G18   29.71R
SALISBURY      CLOUDY    59  57  93 W7        29.69R
OCEAN CITY     CLOUDY    54  52  93 MISG      29.69R
WALLOPS ISLAND CLOUDY    52  51  97 S6        29.68F
ACCOMACK*      CLOUDY    63  55  77 SW14G20   29.68F
$$

NCZ012>017-030>032-270600-
NORTH CENTRAL AND EASTERN NORTH CAROLINA

CITY           SKY/WX    TMP DP  RH WIND       PRES   REMARKS
ROANOKE RAPIDS MOCLDY    63  57  82 S9        29.71S
RALEIGH        CLOUDY    66  56  70 SW9       29.71F
ELIZABETH CITY MOCLDY    63  56  78 S10G18    29.74F
AHOSKIE*       CLOUDY    64  57  76 S7        29.73S
EDENTON*       MOCLDY    63  56  79 S12       29.75F
CURRITUCK*     MOCLDY    65  54  67 S6        29.74F
KILL DEVIL HLS MOCLDY    65  56  74 SW10      29.75F
MANTEO         MOCLDY    62  56  79 SW9       29.77S
CAPE HATTERAS  CLOUDY    65  59  81 SW15      29.77F
TARBORO*       FAIR      66  58  73 S7        29.74F
GOLDSBORO      CLOUDY    65  65  98 S2        29.73S
WASHINGTON     CLOUDY    64  55  74 S5        29.76S
GREENVILLE     CLOUDY    64  57  77 SW9       29.78S
NEW BERN       CLOUDY    65  59  81 S8        29.78F
WILMINGTON     CLOUDY    65  62  90 S9        29.77F
$$

VAZ048-270600-
ELSEWHERE

CITY           SKY/WX    TMP DP  RH WIND       PRES   REMARKS
HARRISBURG PA  CLOUDY    46  38  73 N10       29.76S
BALTIMORE      LGT RAIN  49  41  74 VRB5      29.75R
ANNAPOLIS      RAIN      48  42  80 NW12      29.76R
ANDREWS AFB    HVY RAIN  49  46  89 N12       29.75R
PHILADELPHIA   LGT RAIN  47  42  83 NW16      29.72R
HENDERSON NC   CLOUDY    64  54  69 S8        29.70S
GREENSBORO     MOCLDY    62  54  74 SW7       29.69S
ROCKY MOUNT    CLOUDY    66  58  75 S10       29.73S
$$

VAZ100-270600-
MARINE

STATION/POSITION TIME  TEMP    WIND        PRES    WAVE   SWELL
                       AIR SEA DIR/SP/G            HT/PER HT/PER
                 (UTC) (F)     (DEG/KT/KT) (MB)    (FT/S) (FT/S)
BRANDYWINE LGT   0400   50 40  340/ 17/ 19 1004.7F
CAPE MAY NJ      0400   47 44   60/  1/  4 1004.3F
LEWES DE         0400   52 40  340/  9/ 10 1004.8R
15NM E FENWICK I 0450   46 40              1004.9R   8/10
OCEAN-CITY-INLET 0400   47 41  210/ 13/ 15 1004.5S
WACHAPREAGUE VA  0400   53 51  230/  8/ 12 1005.6R
THOMAS POINT MD  0500                        N/A
COVE POINT MD    0400   48     340/ 10/ 12 1006.1R
SOLOMONS ISLAND  0400      44                N/A
BISHOPS HEAD MD  0400          350/  6/  7   N/A
PINEY POINT MD   0400           10/ 15/ 20   N/A
CAMBRIDGE MD     0400   55 43  320/  8/ 11 1005.6R
LEWISETTA VA     0400   62 50              1005.3R
RAPPAHANNOCK LGT 0400          190/ 15/ 16 1005.8R
STINGRAY PT      0500   55 45  230/  8/ 10   N/A     1/ 2
YORK RVR RNG VA  0400          220/ 21/ 22 1004.5F
YORKTOWN VA      0400          210/ 11/ 13 1005.2S
DOMINION TERM VA 0400   61     200/ 12/ 14 1005.9F
KIPTOPEKE VA     0400      50  200/ 14/ 17   N/A
CHES BAY BRIDGE  0400   63 44  190/ 19/ 22 1005.2F
CAPE HENRY VA    0400   66     190/ 10/ 15 1004.8F
CHESAPEAKE LGHT  0400   55     200/ 28/ 29 1006.2F
WILLOUBY STN VA  0400   65     200/ 18/ 20 1006.2F
S CRANEY ISL VA  0400          200/ 10/ 16 1005.9F
CAPE HENRY BUOY  0428      44                N/A     5/ 8   2/11
1ST LANDING BUOY 0500   59     210/ 14/ 16 1005.5F   3/ 4
OFFSHORE WE BUOY 0411      41                N/A     7/ 9   5/ 9
64NM E OF VA BCH 0450   56 51  210/ 16/ 17 1006.9S   9/ 8   7/ 8
DUCK PIER NC     0400          200/ 12/ 16 1006.7F
44056 DUCK FRF   0411      42                N/A     4/ 8   2/11
OREGON INLET NC  0400   60 60  200/ 14/ 17 1007.8F
HATTERAS NC      0400   66 60  200/  8/ 12 1009.0F
CAPE LOOKOUT NC  0500   65     200/ 10/ 12 1008.5F
$$



USA.gov is the U.S. government's official web portal to all federal, state and local government web resources and services.